WORLDVIEW-3 (WV-3)

Last updated on Thu Nov 21 2024 00:02:27 GMT+0000 (Coordinated Universal Time)

1 40115U 14048A 24325.55576738 .00002113 00000+0 25614-3 0 9997 2 40115 97.8629 36.7496 0007437 70.0978 290.1038 14.84634575556771
UTC large
Height (km)
Speed (km/s)
/
Latitude / Longitude
Inclination (degrees)
Orbital Period (minutes)
Azimuth
Elevation
Range (km)
Doppler Factor

Next 0 passes for location: London (51.5072 / 0.1276)

Sorry there are no passes over London.